Volver al catálogo

DELTA 1 DEB

LostPO
NORAD 42658·DEBRIS·🇺🇸 United States

Lanzado Jun 12, 1975 desde Vandenberg Space Force Base

Loading…

Próximos Pases (próximas 24 horas)

TLE

ObsoletoSource: Space-Track

Época: Feb 13, 2019, 16:09 UTC

1 42658U 75052MT  19044.67300950  .00000404  00000-0  17579-2 0  9991
2 42658  99.7969 209.3313 0432984 303.0360  52.9828 12.60810900678824

Sigue DELTA 1 DEB en tiempo real con AllMySat

Download on the App Store